Theta_e
331 339 347 348 349 348 348 348 347 346 346 345 346 346 347 347 347 347 347 347 347 347 346 346 345 344 344 342 342 342 343 344 344 344 344 344 344 342 340 343 345 341 344
335 341 345 347 348 347 347 345 345 345 345 344 344 345 347 347 347 347 347 346 346 346 345 345 344 342 340 339 338 339 339 340 340 342 343 341 342 342 341 339 341 340 342
339 341 343 345 346 345 344 343 342 341 341 342 343 342 343 344 346 346 346 345 344 342 342 340 338 337 335 335 335 336 336 336 336 338 340 336 336 342 339 339 339 339 340
339 341 341 342 344 341 341 341 340 339 339 340 340 341 341 341 342 341 341 340 339 338 337 335 333 331 330 329 329 330 331 332 330 334 333 336 339 341 340 340 341 341 343
337 338 338 340 342 339 339 340 338 338 338 338 337 339 339 339 338 337 336 336 334 332 330 328 326 325 324 323 323 323 325 326 323 320 331 334 334 341 342 342 341 342 344
334 335 337 340 340 339 338 337 336 336 336 334 334 334 333 333 332 331 331 330 328 327 325 324 322 321 320 320 319 319 319 320 313 318 329 331 332 342 344 344 342 343 341
332 335 336 339 339 339 336 335 334 334 334 332 331 331 330 329 328 328 327 326 324 323 321 320 319 318 318 318 317 317 316 317 304 319 325 324 328 339 341 341 343 342 341
331 332 334 332 335 336 336 334 333 332 331 330 329 329 327 326 325 325 323 322 320 319 318 317 316 316 316 316 316 316 315 313 303 310 314 316 329 335 337 338 339 340 342
330 330 331 331 330 330 332 331 331 331 330 328 327 326 324 323 322 321 319 319 318 316 315 315 315 315 315 315 315 314 312 311 297 306 310 311 323 330 332 332 334 336 338
323 326 325 324 326 327 326 326 327 327 327 326 325 323 321 319 317 316 315 315 315 314 313 312 313 313 311 312 312 311 309 306 297 301 304 308 317 320 323 326 329 331 335
317 317 320 319 320 320 320 319 322 323 323 321 318 317 310 303 302 303 310 311 311 311 312 312 311 309 307 306 308 308 305 298 297 297 301 312 314 316 318 319 322 326 329
313 311 314 316 315 316 315 310 310 311 307 306 306 302 300 297 298 301 306 308 309 309 309 309 308 305 300 295 295 300 296 296 297 297 300 311 313 314 316 317 318 321 325
313 312 310 313 312 311 308 305 304 302 300 300 300 299 297 297 298 296 296 295 295 299 295 296 295 295 294 294 294 294 295 295 295 296 299 309 310 312 314 315 317 319 321
310 311 309 310 310 305 306 304 301 299 296 296 297 298 295 295 294 294 294 294 294 293 292 292 292 293 293 294 294 294 294 294 294 295 297 305 308 311 313 315 317 319 319
310 310 310 308 308 304 304 300 298 296 296 296 296 297 296 294 293 293 293 293 292 292 291 291 291 292 292 293 294 294 294 294 294 295 295 302 307 310 312 316 318 318 318
311 310 309 308 308 305 303 300 297 295 295 295 295 296 296 295 293 293 292 292 291 291 291 291 291 291 291 292 293 294 294 294 294 294 295 296 306 309 312 318 316 318 319
312 311 308 308 307 304 302 300 297 296 296 295 294 295 296 295 293 292 292 291 291 291 291 290 290 290 290 291 291 292 293 294 294 295 295 296 300 306 312 313 315 317 318
312 309 309 308 305 303 301 299 297 296 295 295 294 294 295 295 293 291 291 290 291 290 290 289 289 289 289 289 289 290 291 292 293 293 295 295 298 301 303 310 311 312 314
311 309 307 306 303 302 300 298 296 295 295 294 293 293 294 294 293 291 290 290 290 290 289 289 288 288 287 288 289 290 291 291 291 294 293 295 297 298 297 304 304 305 308
310 309 308 305 302 301 298 295 294 294 292 292 292 292 293 293 293 291 290 290 290 289 288 288 287 287 287 287 290 290 289 289 290 290 291 295 296 296 295 295 294 295 303
307 307 306 304 301 299 296 295 293 293 292 290 291 293 293 292 292 290 290 289 289 288 287 288 287 287 286 287 286 287 288 290 290 290 291 292 294 294 292 292 292 292 293
303 306 306 303 301 300 299 298 294 292 290 292 291 292 292 292 291 290 289 288 288 287 287 287 287 286 286 287 285 285 284 287 290 290 291 291 290 291 291 291 291 291 290
300 302 304 303 300 300 298 293 290 290 289 288 288 289 290 291 291 290 289 288 287 287 286 286 286 286 284 286 286 285 282 283 284 288 288 289 289 288 288 289 290 291 290
299 302 303 302 299 299 297 295 292 293 290 289 289 289 289 290 290 289 289 287 287 286 286 286 287 286 285 284 285 288 286 285 283 283 286 286 287 288 287 284 286 289 288
296 299 301 300 298 297 296 296 293 293 292 288 288 288 288 288 289 289 288 287 286 285 285 285 285 284 284 283 283 283 283 284 284 283 282 283 284 281 281 283 282 282 287
293 294 298 297 296 295 295 294 293 292 288 287 288 288 287 286 286 287 287 286 286 285 285 284 284 284 283 282 283 283 283 282 282 282 281 281 280 284 286 290 289 287 284
Wind_Speed
5 7 13 17 18 17 16 16 14 15 15 13 12 12 14 14 14 13 13 13 14 14 12 12 12 11 11 9 9 10 11 11 10 8 7 6 6 5 6 7 7 3 4
8 7 14 17 18 18 16 14 13 14 14 13 11 12 14 16 15 14 14 15 14 14 14 13 13 12 10 10 9 9 9 9 9 7 6 5 6 4 5 3 3 3 4
10 10 13 16 15 15 15 13 14 13 14 14 13 12 12 13 14 15 15 15 14 13 14 12 11 11 9 9 9 9 10 9 8 6 6 3 3 2 2 2 1 2 3
12 10 12 17 17 17 16 15 15 15 15 15 15 15 14 13 12 12 13 13 13 12 11 11 11 11 10 10 10 11 11 10 9 7 4 4 3 2 2 1 3 3 2
13 12 11 15 16 16 15 15 15 15 15 15 15 16 15 15 14 13 13 13 12 11 11 11 11 11 11 11 11 12 12 12 10 7 4 4 4 3 3 3 1 3 3
14 14 14 17 18 17 16 16 15 15 15 15 15 15 15 15 14 14 14 13 12 11 11 10 10 10 10 11 12 13 13 12 10 5 5 6 5 6 7 8 3 2 3
13 13 14 17 18 18 15 16 15 15 15 15 14 14 14 14 13 13 12 12 11 10 10 10 10 10 10 11 12 13 12 11 6 5 5 5 5 8 8 7 10 5 3
12 12 12 13 16 18 16 17 16 16 15 15 14 14 14 13 12 12 11 11 10 10 9 9 10 10 10 10 11 13 12 12 7 5 5 5 9 8 8 9 8 9 9
11 10 10 10 11 17 13 15 15 16 16 16 15 14 14 13 12 12 11 10 9 9 8 9 9 9 10 11 11 11 11 12 6 4 5 4 10 9 9 10 11 10 8
5 8 8 7 8 11 8 11 12 14 15 14 14 13 12 12 12 10 8 8 9 8 8 7 9 9 10 10 11 11 10 10 6 5 4 4 9 9 9 10 11 11 10
5 5 7 6 6 8 7 7 10 12 13 13 12 12 10 5 6 6 7 9 8 7 7 8 8 10 10 10 10 9 9 4 4 3 3 7 9 9 10 11 11 11 10
11 7 7 8 8 8 6 6 6 5 5 5 6 7 4 5 5 5 5 7 8 8 8 8 9 10 7 4 4 6 3 5 4 4 3 8 9 9 10 11 11 11 11
10 7 6 10 9 8 6 4 4 3 3 4 6 6 5 4 3 3 2 3 3 6 3 5 5 3 4 3 4 3 4 4 2 2 4 8 9 10 11 12 11 11 10
13 11 8 9 10 6 6 5 5 5 4 4 4 6 5 4 4 4 2 3 3 2 3 3 2 3 4 4 4 4 4 3 2 2 4 8 8 10 12 12 11 11 9
14 13 12 11 13 9 8 4 4 4 4 4 5 5 5 5 4 4 3 3 3 2 2 2 2 3 4 5 4 4 4 4 4 2 2 7 7 10 12 11 8 6 7
14 16 13 14 13 12 9 9 6 4 4 4 4 5 6 5 5 5 4 3 3 2 2 2 2 3 3 3 4 4 4 4 4 4 3 3 7 9 11 11 5 6 5
17 14 17 15 12 12 11 9 7 7 6 5 5 6 6 6 6 6 5 4 4 2 3 2 2 2 2 3 3 4 4 4 4 4 3 2 3 7 8 7 8 9 9
15 18 15 13 13 13 11 8 6 6 6 5 5 5 6 6 6 5 4 4 4 3 3 2 2 1 1 2 3 4 4 4 4 4 3 1 1 1 5 8 9 10 10
19 17 17 16 16 14 10 9 7 8 6 5 4 4 7 7 6 5 4 4 5 3 3 2 1 2 2 3 4 4 4 4 4 2 4 2 2 2 2 6 8 9 9
15 15 16 14 15 14 8 5 4 6 4 5 5 5 6 4 6 5 4 5 4 3 3 2 2 1 0 2 4 5 4 4 3 3 3 1 3 3 3 4 4 4 6
14 16 19 19 16 13 9 9 5 8 5 3 4 7 8 6 6 5 4 4 4 4 3 3 2 2 1 2 3 3 3 4 3 2 0 1 3 3 4 3 2 2 3
17 17 16 19 17 15 11 10 4 5 2 3 4 5 6 7 7 6 6 5 5 4 4 3 2 2 0 1 2 1 3 4 3 4 2 2 3 2 4 3 3 3 3
16 17 18 19 18 17 13 8 5 5 4 3 3 4 4 7 7 7 7 6 6 4 4 3 3 4 3 0 1 3 0 2 2 3 3 2 2 1 2 2 3 3 3
21 20 19 19 19 18 18 16 14 11 8 5 5 4 5 7 7 6 6 6 6 4 5 4 3 3 3 3 0 1 1 2 1 3 2 2 1 2 2 1 2 3 3
16 15 16 16 17 17 19 18 14 12 8 4 5 9 5 5 6 6 6 6 5 4 4 5 4 4 2 2 2 1 1 1 1 2 2 3 3 1 1 2 3 2 2
8 10 14 17 17 16 17 16 18 16 12 9 8 8 6 4 4 6 6 6 5 5 5 4 4 5 4 2 2 3 2 2 2 2 2 2 2 3 2 2 3 4 2
Wind_Direction
195 169 162 158 146 139 136 133 135 124 121 120 115 110 107 107 113 114 111 107 101 96 90 81 74 72 66 65 57 48 39 34 32 36 49 52 46 57 75 78 104 107 95
136 148 152 150 138 132 127 123 121 121 122 121 126 119 106 110 111 110 108 103 100 94 85 78 72 68 64 58 51 50 46 41 40 27 22 31 14 7 72 89 102 137 125
140 144 143 136 132 128 127 133 137 135 135 129 127 124 116 108 102 98 96 97 94 88 77 75 70 63 55 50 48 41 38 34 34 28 34 21 342 4 70 118 146 158 149
139 141 138 136 139 145 145 145 142 143 139 134 128 123 121 116 109 106 91 81 79 86 83 79 73 66 57 46 37 33 29 27 26 30 31 33 20 28 3 278 163 187 159
140 135 140 138 144 147 145 147 145 146 140 132 128 125 124 118 110 111 104 96 95 90 83 75 68 60 54 47 38 33 30 26 21 15 9 22 19 12 1 351 325 202 192
142 139 143 145 150 148 154 153 150 147 144 137 131 126 123 119 116 115 112 109 103 97 89 79 72 63 55 46 40 35 30 28 24 13 31 15 8 351 27 5 285 273 237
142 144 146 153 153 149 155 157 154 150 142 135 129 125 120 117 114 112 109 105 100 94 85 76 68 58 53 47 42 36 29 29 33 26 45 22 353 3 6 8 11 318 279
142 145 148 153 158 146 162 164 156 151 145 138 135 130 124 118 115 112 108 102 95 83 74 65 59 54 52 45 45 38 29 37 34 32 30 12 359 14 7 5 6 3 348
144 150 153 159 157 138 165 166 158 153 147 144 140 134 126 123 121 117 113 108 98 86 75 64 61 56 49 45 45 37 30 40 46 26 18 6 359 359 2 360 356 356 344
129 152 152 146 155 138 161 151 151 150 146 144 138 129 122 124 119 114 107 112 106 98 90 76 63 61 51 43 41 38 29 28 32 23 15 346 356 350 346 346 347 345 346
155 156 152 139 139 124 133 144 138 140 138 132 124 121 106 102 107 115 124 111 110 104 77 70 66 47 39 29 31 29 22 15 22 16 2 347 350 343 339 335 331 328 331
182 180 168 145 132 142 135 123 112 113 116 125 127 123 119 123 130 127 112 102 84 78 73 59 49 43 35 23 10 20 12 0 13 357 354 349 344 337 331 326 320 313 314
178 175 183 144 146 148 141 137 130 129 132 137 146 143 142 131 116 107 93 78 73 70 50 47 36 34 31 26 14 11 3 358 357 350 340 343 338 331 326 320 310 302 302
177 180 168 156 158 160 152 160 154 153 160 160 171 153 139 141 149 149 134 122 101 85 88 67 48 23 28 19 18 358 358 345 339 336 331 332 329 325 321 316 308 300 296
186 182 182 168 167 163 160 154 156 171 171 167 166 164 150 152 156 148 143 134 127 116 97 72 53 29 19 5 2 359 344 330 324 322 316 318 319 323 323 314 304 300 295
185 191 178 183 179 170 171 170 175 166 170 165 175 173 165 157 154 154 149 153 141 133 115 95 61 33 10 359 347 349 332 323 320 311 306 312 316 325 325 313 341 341 339
195 181 186 182 179 178 178 175 173 178 168 171 180 179 172 164 165 158 158 161 161 144 117 87 56 47 17 356 338 325 316 317 309 314 299 277 309 331 346 9 352 11 19
186 189 179 182 180 178 179 174 172 174 171 182 172 165 170 166 163 156 154 165 154 136 130 103 71 23 7 355 317 309 305 307 301 304 303 268 256 344 0 43 32 14 8
191 179 183 180 180 183 177 170 166 167 176 172 160 168 171 168 163 151 159 161 152 140 124 126 91 75 347 331 307 299 295 294 285 314 299 262 234 134 60 56 53 31 13
193 186 180 182 177 177 164 146 138 159 165 165 167 168 166 164 162 155 154 155 151 132 122 99 102 63 272 307 307 301 295 297 285 254 276 256 182 131 89 72 51 19 32
187 183 184 181 179 167 167 169 174 190 177 170 172 166 163 162 162 161 158 155 153 150 158 146 123 94 353 358 329 330 347 358 19 21 13 138 132 123 105 84 79 46 12
194 195 185 188 180 182 176 178 163 147 159 162 163 165 166 163 164 164 163 166 162 144 152 141 143 128 198 34 124 114 348 331 12 21 44 125 122 120 109 94 91 74 56
194 193 194 187 182 181 173 136 93 84 72 104 172 175 178 166 169 165 169 163 163 158 174 172 167 167 178 235 124 142 225 244 326 354 35 38 119 75 77 99 103 99 90
203 196 190 186 180 179 167 169 169 180 172 183 161 154 164 171 171 168 165 165 163 161 167 179 176 172 143 196 21 70 206 149 192 322 15 13 13 154 160 22 92 120 118
198 191 188 181 179 177 177 179 175 181 171 135 139 159 161 164 168 167 168 164 167 170 169 176 158 158 171 164 174 135 80 63 153 158 271 307 348 296 245 178 154 120 118
177 178 176 176 180 174 180 179 179 172 156 145 158 169 171 166 169 174 169 166 171 170 173 181 180 167 161 157 159 156 174 164 180 179 214 262 277 283 258 200 181 145 160